Location: Taaricht
(32.5378°N, 5.4251°W)
Time: 12:43:06
(UTC+00:00)

USA 186 - Pass Details

Date: 09 April 2020
Orbit: 261 x 446 km, 96.9° (Epoch: 04 June)

Event Time Altitude Azimuth Distance (km) Brightness Sun altitude
Rises 09:23:16 0° 345° (NNW) 1,963 4.9 41.6°
Reaches altitude 10° 09:26:30 10° 295° (WNW) 1,098 3.5 42.2°
Drops below altitude 10° 09:27:00 10° 282° (WNW) 1,092 3.5 42.3°
Enters shadow 10:01:03 -67° 182° (S) 12,177 8.8 48.8°
Exits shadow 10:27:47 -56° 34° (NE) 11,139 8.5 53.6°
Maximum altitude 19:40:56 32° 76° (ENE) 759 2.6 -11.7°
